This is the latest recevied weather packets stored in our database for station/object W0DXV. If no packets are shown the sender has not sent any weather packets the latest 10 day(s).
| Time | Temp. | Humidity | Pressure | Rain* | Wind** | Luminosity | Snow |
|---|---|---|---|---|---|---|---|
| 1777067597 | 27.22° C | 41% | 1005.1 hPa | 0 mm | - | 70 W/m² | - |
| 1777067296 | 27.22° C | 37% | 1005.2 hPa | 0 mm | - | 75 W/m² | - |
| 1777066991 | 27.78° C | 38% | 1005 hPa | 0 mm | - | 88 W/m² | - |
| 1777066687 | 27.78° C | 36% | 1005.2 hPa | 0 mm | - | 100 W/m² | - |
| 1777066383 | 27.78° C | 39% | 1005.3 hPa | 0 mm | - | 140 W/m² | - |
| 1777066078 | 27.78° C | 40% | 1005.3 hPa | 0 mm | - | 151 W/m² | - |
| 1777065771 | 27.78° C | 37% | 1005.3 hPa | 0 mm | - | 168 W/m² | - |
| 1777065468 | 27.78° C | 40% | 1005.3 hPa | 0 mm | - | 167 W/m² | - |
| 1777065162 | 27.22° C | 38% | 1005.4 hPa | 0 mm | - | 178 W/m² | - |
| 1777064860 | 27.78° C | 39% | 1005.4 hPa | 0 mm | - | 160 W/m² | - |
| 1777064551 | 27.22° C | 37% | 1005.5 hPa | 0 mm | - | 137 W/m² | - |
| 1777064246 | 27.78° C | 37% | 1005.6 hPa | 0 mm | - | 115 W/m² | - |
| 1777063936 | 27.78° C | 37% | 1005.6 hPa | 0 mm | - | 103 W/m² | - |
| 1777063636 | 27.78° C | 37% | 1005.6 hPa | 0 mm | - | 103 W/m² | - |
| 1777063332 | 27.78° C | 37% | 1005.5 hPa | 0 mm | - | 113 W/m² | - |
| 1777063029 | 27.78° C | 36% | 1005.6 hPa | 0 mm | - | 130 W/m² | - |
| 1777062726 | 28.89° C | 35% | 1005.7 hPa | 0 mm | - | 160 W/m² | - |
| 1777062424 | 28.89° C | 33% | 1006 hPa | 0 mm | - | 197 W/m² | - |
| 1777062120 | 29.44° C | 31% | 1006 hPa | 0 mm | - | 420 W/m² | - |
| 1777061817 | 29.44° C | 34% | 1005.9 hPa | 0 mm | - | 543 W/m² | - |
| 1777061513 | 29.44° C | 34% | 1005.9 hPa | 0 mm | - | 590 W/m² | - |
| 1777061210 | 28.33° C | 37% | 1006.2 hPa | 0 mm | - | 607 W/m² | - |
| 1777060909 | 27.78° C | 36% | 1006.1 hPa | 0 mm | - | 245 W/m² | - |
| 1777060604 | 28.33° C | 36% | 1006.3 hPa | 0 mm | - | 284 W/m² | - |
| 1777060301 | 27.78° C | 40% | 1006.3 hPa | 0 mm | - | 518 W/m² | - |
* Rain latest hour (hover to see other rain measurements)
** Current wind speed in m/s (hover to see current wind gust speed)